Preview of NWS' New Version of Forecast
This preview is not operational and should not be used for support decisions.

Regional Weather Roundup (RWR)

Issued by National Weather Service (NWS)

                            
000
ASUS43 KTOP 191459
RWRKS 

WEATHER ROUNDUP FOR KANSAS
NATIONAL WEATHER SERVICE GOODLAND KS
1000 AM CDT FRI APR 19 2019

NOTE:  "FAIR" INDICATES FEW OR NO CLOUDS BELOW 12,000 FEET WITH NO
SIGNIFICANT WEATHER AND/OR OBSTRUCTIONS TO VISIBILITY.

KSZ001>006-013>018-027>032-041>047-191600-
NORTHWEST KANSAS
  
CITY           SKY/WX    TMP DP  RH WIND       PRES   REMARKS
GOODLAND       SUNNY     53  26  35 W8        30.17F                  
HAYS           SUNNY     52  37  56 N9        30.18S                  
HILL CITY      SUNNY     52  35  52 NW14      30.19S                  
RUSSELL        SUNNY     50  37  61 NW12      30.16S                  
$$

KSZ061>065-074>080-084>089-191600-
SOUTHWEST KANSAS
  
CITY           SKY/WX    TMP DP  RH WIND       PRES   REMARKS
DODGE CITY     SUNNY     50  33  52 N12       30.20S                  
GARDEN CITY    SUNNY     51  33  50 NW8       30.20S                  
GREAT BEND       N/A     52  38  58 N15       30.18R                  
LIBERAL        SUNNY     53  32  44 N10       30.22F                  
$$

KSZ066>073-081>083-090>101-191600-
SOUTHEAST KANSAS
  
CITY           SKY/WX    TMP DP  RH WIND       PRES   REMARKS
CHANUTE        SUNNY     55  40  56 N18G29    30.06R                  
COFFEYVILLE    SUNNY     54  41  61 N21G29    30.05R                  
HUTCHINSON     SUNNY     53  37  54 N16G25    30.14R                  
MEDICINE LODGE   N/A     53  38  56 NW10      30.16S                  
NEWTON         SUNNY     51  38  60 N17G24    30.12S                  
PARSONS        SUNNY     55  41  59 N14G25    30.06S                  
WICHITA INTL   SUNNY     53  38  56 N16G26    30.12R                  
WICHITA JABRA  SUNNY     52  40  63 N15       30.11S                  
WICHITA MCCONL SUNNY     51  39  64 N15       30.11S                  
WINFIELD       SUNNY     53  41  63 N17G23    30.12R                  
$$

KSZ007>012-019>026-033>040-048>060-102>105-191600-
NORTHEAST KANSAS
  
CITY           SKY/WX    TMP DP  RH WIND       PRES   REMARKS
CONCORDIA        N/A    N/A N/A N/A MISG      30.14S                  
EMPORIA        SUNNY     53  38  56 N16G25    30.08S                  
LAWRENCE       SUNNY     54  38  54 N18G24    30.06S                  
MANHATTAN      SUNNY     53  36  52 N14G21    30.11S                  
OLATHE IND     SUNNY     52  40  63 N18       30.05R                  
OLATHE EXE     MOSUNNY   51  37  58 N20G26    30.04R                  
SALINA         SUNNY     51  39  63 NW15      30.15S                  
TOPEKA BILLARD SUNNY     54  40  59 N13G23    30.08R                  
TOPEKA FORBES  SUNNY     54  39  57 N16G24    30.07R                  
$$